VAA065 LFGA-LFBT

Flight info

Callsign VAA065
Flight time N/A
Altitude 22000
Route BEGAR DCT TUFTA DCT MOKIP DCT LERGA DCT AGN
Aircraft AT76/M-SDFGIRY/S

Departure

Time 2026-05-04 09:08
Airport Colmar Houssen airport (LFGA)

Arrival

Time N/A
Airport Tarbes-Lourdes-Pyrénées Airport (LFBT)
Time Latitude Longitude Altitude Speed Heading
2026-05-04 09:01 48.10942 7.36155 625 ft 0 kts 101°
2026-05-04 09:04 48.10946 7.36181 628 ft 4 kts 39°
2026-05-04 09:04 48.10998 7.36149 630 ft 11 kts 326°
2026-05-04 09:04 48.11082 7.36164 626 ft 14 kts 12°
2026-05-04 09:04 48.11177 7.36188 635 ft 16 kts 12°
2026-05-04 09:05 48.11287 7.36222 628 ft 6 kts
2026-05-04 09:05 48.11327 7.36233 628 ft 3 kts 11°
2026-05-04 09:05 48.11376 7.36246 626 ft 8 kts
2026-05-04 09:05 48.11418 7.36202 627 ft 7 kts 290°
2026-05-04 09:06 48.11423 7.36172 628 ft 0 kts 283°
2026-05-04 09:07 48.10932 7.35854 628 ft 102 kts 193°
2026-05-04 09:08 48.10157 7.35624 1073 ft 125 kts 189°
2026-05-04 09:08 48.09197 7.35423 1505 ft 154 kts 186°
2026-05-04 09:08 48.08008 7.35218 1814 ft 189 kts 186°
2026-05-04 09:08 48.06627 7.35453 2042 ft 216 kts 154°
2026-05-04 09:09 48.05538 7.37090 2399 ft 232 kts 120°
2026-05-04 09:09 48.04771 7.39267 2779 ft 241 kts 117°
2026-05-04 09:09 48.03966 7.41500 3159 ft 249 kts 120°
2026-05-04 09:09 48.02976 7.43736 3265 ft 266 kts 126°
2026-05-04 09:10 48.02507 7.44671 3344 ft 0 kts 128°